Wind_Speed
32 33 35 36 38 39 40 41 42 44 45 46 47 48 49 50 51 52 54 55 56 57 59 60 62 64 66 68 70 72 74 76 78 80 81 83 85 87 90 90 91 91 90
33 35 36 38 40 41 42 43 44 45 46 48 49 50 52 53 54 55 57 58 59 61 62 64 65 67 69 71 73 75 77 79 80 82 84 85 87 89 93 96 96 97 97
35 37 39 40 42 43 44 45 46 47 48 50 51 52 54 55 57 58 60 61 62 63 65 67 68 70 72 74 76 78 79 81 83 85 86 87 89 92 96 100 102 102 103
37 39 41 43 44 46 47 48 49 50 51 52 53 54 56 57 59 61 62 63 64 66 67 69 70 72 74 76 78 80 82 84 86 87 89 91 93 95 98 102 105 107 108
40 42 44 45 47 48 50 51 51 52 53 54 55 56 57 59 60 62 64 65 66 68 69 71 72 74 76 78 79 82 84 86 88 89 91 93 95 97 99 103 107 110 113
43 45 47 49 50 51 52 53 54 54 55 56 56 57 58 60 61 63 65 66 68 69 71 73 74 75 77 79 80 83 85 87 88 90 91 93 94 96 99 103 108 112 116
46 48 50 51 53 54 55 55 56 56 57 57 58 59 59 61 62 64 66 68 69 71 73 74 76 77 78 79 81 83 85 86 87 88 88 89 90 92 96 100 105 111 117
49 51 53 54 55 56 56 57 57 58 59 59 60 60 61 62 63 64 66 68 71 72 74 76 77 78 80 80 82 83 84 84 84 83 82 82 83 86 90 95 100 107 114
53 54 55 57 57 58 58 59 59 60 60 60 60 62 63 64 65 65 67 69 72 73 75 77 78 79 81 81 82 81 81 81 79 77 74 73 73 76 80 86 93 101 110
56 57 58 59 59 59 60 61 61 61 61 62 62 62 64 65 66 66 67 70 72 73 75 77 78 79 81 81 81 79 79 77 73 70 66 64 63 64 69 77 85 94 104
58 59 60 61 61 61 62 63 62 62 63 63 63 64 65 66 68 68 68 69 71 73 75 76 78 79 80 80 79 77 75 72 68 63 59 55 53 55 60 68 76 86 96
59 60 62 62 63 63 64 64 64 64 64 64 65 65 66 67 69 69 69 69 69 71 73 75 77 78 78 78 76 74 71 67 63 57 51 47 46 48 54 61 70 80 90
60 62 63 64 64 65 66 66 66 65 65 66 66 66 67 68 69 70 70 69 69 70 71 73 76 76 77 76 74 71 67 63 58 51 46 42 42 43 49 56 65 74 84
62 63 65 66 66 66 67 67 67 67 67 67 67 67 68 68 69 70 70 69 69 68 68 70 73 74 75 74 72 68 64 59 54 47 42 39 39 39 46 54 62 71 80
63 65 66 67 67 67 68 68 67 67 68 68 66 66 67 68 68 69 69 69 70 69 66 67 70 71 72 71 68 66 61 56 51 44 39 37 36 37 44 53 59 68 78
66 66 67 67 67 68 67 67 66 67 68 66 65 65 66 67 67 67 67 68 69 69 67 66 67 68 68 67 65 63 58 53 48 42 37 35 34 36 44 53 60 66 74
66 67 68 68 67 66 66 66 66 66 65 64 63 64 65 65 65 66 66 67 67 67 67 65 65 65 65 63 61 59 55 50 45 40 36 33 33 35 42 53 60 66 72
67 68 67 66 65 65 65 65 65 64 63 62 62 62 63 64 64 65 65 65 65 66 66 65 63 62 61 60 58 55 51 48 44 39 35 32 32 35 41 52 60 67 74
65 65 65 64 64 63 63 63 62 62 61 60 60 61 61 62 63 63 64 64 64 64 64 64 61 60 59 58 55 51 48 45 42 38 35 32 31 35 41 50 60 68 74
64 64 63 62 61 61 60 60 60 59 58 58 59 59 60 61 61 62 62 62 62 62 62 62 60 59 57 55 53 49 45 43 40 37 34 31 30 33 40 48 58 67 74
61 61 60 59 58 58 58 58 57 57 56 56 57 58 59 60 60 60 60 60 60 60 60 60 59 57 56 54 50 47 43 40 38 36 33 30 28 30 37 48 56 66 74
58 58 57 56 56 56 57 56 55 55 55 55 55 56 57 58 58 59 58 58 58 58 58 58 57 56 54 51 48 44 41 39 35 34 32 28 27 27 33 44 55 64 74
55 55 55 55 55 55 56 55 54 53 53 53 54 55 55 56 56 57 56 56 55 56 56 56 55 53 51 48 46 42 40 38 35 32 30 26 25 25 30 41 52 61 71
55 55 55 55 55 55 55 53 52 52 52 53 53 54 54 54 55 55 54 53 53 53 53 53 53 51 48 45 43 40 38 36 33 30 28 25 23 23 26 36 50 59 69
55 55 55 54 54 53 53 52 52 51 51 51 52 53 53 53 53 53 53 52 51 51 50 50 50 48 46 43 41 39 36 34 30 28 26 23 21 20 24 32 45 57 67
54 54 54 54 53 53 52 51 51 50 50 51 51 51 52 52 51 52 51 51 50 49 49 48 46 45 43 41 39 37 34 31 28 25 23 22 20 18 20 29 41 54 65
Wind_Direction
316 315 314 312 310 308 307 304 302 300 299 298 297 297 296 296 295 294 294 293 292 290 289 287 286 286 285 283 281 280 277 274 272 269 264 259 254 250 247 244 242 242 242
316 315 314 313 312 310 308 306 304 302 300 299 299 298 298 297 297 296 296 295 294 293 292 291 290 289 288 287 285 283 280 278 275 272 268 263 257 253 248 244 241 240 239
315 315 315 314 313 311 310 308 306 304 302 301 300 300 299 299 298 298 297 297 296 295 295 294 293 292 291 289 288 286 284 281 279 276 271 266 261 256 251 246 242 239 237
312 312 313 313 313 312 311 309 307 306 304 302 302 301 300 300 299 299 299 298 298 297 296 296 295 295 293 292 291 289 287 285 283 279 274 270 265 259 253 248 243 238 234
310 311 311 311 311 311 310 309 308 306 305 303 303 302 302 301 300 300 299 299 299 299 298 298 298 297 296 295 293 292 290 288 286 282 278 273 267 260 253 247 242 238 233
308 309 310 310 310 310 309 309 307 306 305 303 303 302 302 302 301 301 301 301 301 301 301 300 300 299 298 297 296 295 294 291 289 285 280 274 267 260 253 246 241 236 231
306 307 308 308 309 309 308 307 307 306 305 303 302 302 302 302 302 302 303 303 303 303 303 302 302 302 301 300 299 298 297 294 291 287 281 275 267 260 253 245 238 233 229
305 306 306 307 307 307 307 306 306 306 305 304 303 302 302 301 301 303 303 304 304 305 305 305 305 304 303 303 302 301 299 297 294 289 283 276 268 259 251 243 236 230 226
303 304 305 305 305 306 306 305 305 305 305 304 304 304 303 303 302 303 304 305 306 306 307 307 306 306 305 306 305 304 302 300 296 291 285 278 268 258 249 241 234 229 224
302 302 303 304 304 305 305 305 305 305 304 304 304 304 305 304 303 304 305 306 306 307 307 308 307 307 308 308 307 306 305 302 299 293 287 279 268 257 248 239 232 227 222
300 301 302 303 303 304 304 304 305 305 304 304 304 305 305 305 305 305 306 306 307 308 308 308 308 309 309 310 309 308 307 305 302 295 288 278 266 254 244 235 229 225 221
299 300 301 302 302 303 303 304 305 305 304 305 305 305 305 305 305 306 306 307 308 309 309 309 310 311 311 311 311 310 308 307 304 296 287 277 264 251 240 231 225 222 218
298 298 299 301 301 302 303 304 304 304 304 305 306 306 305 305 306 306 307 308 309 310 310 310 311 312 312 312 312 311 310 309 305 296 287 276 263 250 236 227 221 217 215
296 297 299 300 301 301 302 303 303 304 304 305 306 306 305 306 306 307 308 309 310 311 311 311 312 313 313 314 313 313 312 310 306 296 287 276 262 248 232 222 216 213 212
296 297 299 300 301 301 301 301 302 304 304 305 306 306 306 306 307 308 309 310 311 312 313 313 313 314 314 314 314 314 313 312 307 297 287 276 260 244 228 217 212 210 210
297 298 299 299 300 300 300 301 302 303 304 305 305 306 306 307 308 309 309 311 312 313 314 315 315 315 315 315 315 314 314 312 309 299 288 276 259 242 225 213 208 208 208
297 297 298 299 299 300 300 300 301 302 303 304 305 305 305 306 308 309 310 311 312 313 315 317 316 316 316 316 316 315 314 312 310 302 289 277 259 241 224 212 206 204 205
297 298 298 299 299 299 299 300 301 301 302 304 304 305 306 307 308 309 311 312 313 314 316 317 318 317 317 317 317 315 314 312 310 305 291 278 259 242 225 212 206 203 202
297 298 298 299 299 299 299 300 300 300 301 303 303 305 306 307 309 310 311 312 313 314 316 318 318 318 318 318 317 316 314 312 310 306 295 280 262 244 228 215 207 202 201
297 297 298 298 298 298 299 300 300 300 300 301 303 304 306 308 309 310 311 312 313 315 316 318 318 319 319 318 317 316 314 312 310 307 300 286 268 248 230 217 208 203 201
297 297 298 298 299 299 299 299 299 299 300 302 303 304 306 308 309 310 312 313 314 316 317 318 319 319 320 319 318 316 315 313 311 308 303 291 273 253 234 219 210 205 202
298 298 298 299 299 299 299 299 298 298 300 301 302 304 307 309 309 311 312 313 315 316 318 319 320 320 320 319 318 317 315 314 311 307 304 294 276 257 238 221 211 205 202
298 299 299 299 299 299 299 298 297 297 299 301 303 305 307 308 309 311 312 313 315 316 318 319 320 321 320 319 318 317 315 314 312 308 303 295 279 260 241 223 212 206 202
298 299 300 300 299 298 298 297 297 297 298 300 303 305 306 308 310 311 313 314 315 316 317 319 320 320 320 319 318 317 314 313 311 307 302 295 282 263 244 225 212 206 202
299 299 299 299 299 298 298 297 297 297 298 300 302 304 306 308 309 311 313 314 315 316 318 319 319 320 320 319 318 316 313 312 310 306 301 294 283 267 245 226 213 206 202
299 299 300 299 298 298 297 297 296 296 298 299 302 303 305 307 309 311 313 315 316 317 319 319 319 320 320 320 318 317 313 311 309 305 298 292 283 269 247 226 213 206 202
Height
5804 5800 5796 5792 5788 5784 5779 5775 5771 5766 5762 5758 5753 5749 5745 5741 5737 5733 5730 5726 5722 5719 5715 5712 5708 5705 5701 5698 5696 5694 5692 5691 5690 5691 5693 5696 5700 5706 5712 5720 5728 5737 5745
5798 5793 5789 5784 5780 5775 5771 5766 5761 5756 5751 5747 5742 5737 5732 5728 5723 5719 5714 5710 5706 5702 5698 5693 5689 5685 5680 5676 5672 5669 5666 5664 5663 5663 5664 5667 5671 5676 5683 5692 5701 5711 5721
5791 5786 5781 5777 5771 5766 5761 5756 5751 5745 5740 5735 5730 5724 5719 5714 5709 5703 5698 5694 5689 5684 5679 5674 5669 5664 5659 5653 5648 5643 5639 5636 5634 5633 5633 5635 5638 5644 5651 5659 5670 5681 5693
5783 5778 5773 5768 5763 5757 5751 5746 5740 5735 5729 5723 5718 5712 5706 5700 5694 5688 5683 5677 5672 5666 5661 5655 5649 5643 5636 5630 5624 5617 5611 5607 5603 5600 5599 5600 5603 5608 5614 5624 5634 5647 5661
5775 5770 5764 5759 5753 5747 5741 5735 5729 5723 5717 5711 5705 5699 5692 5686 5679 5673 5666 5660 5654 5647 5641 5635 5629 5622 5614 5607 5599 5591 5583 5576 5570 5565 5562 5562 5564 5568 5575 5584 5597 5610 5626
5766 5761 5755 5749 5743 5737 5730 5724 5718 5711 5705 5698 5692 5686 5679 5672 5664 5657 5650 5643 5636 5629 5622 5615 5607 5600 5592 5583 5574 5564 5553 5544 5536 5529 5524 5521 5522 5526 5533 5542 5555 5571 5588
5757 5751 5745 5738 5732 5726 5719 5712 5705 5699 5692 5685 5679 5672 5666 5658 5650 5641 5633 5625 5617 5609 5601 5593 5585 5577 5568 5559 5548 5536 5524 5513 5503 5493 5486 5482 5481 5484 5490 5500 5514 5530 5549
5746 5740 5734 5727 5721 5714 5707 5700 5693 5686 5678 5671 5664 5657 5651 5645 5637 5627 5617 5607 5598 5590 5581 5572 5562 5553 5543 5533 5522 5509 5495 5482 5470 5460 5451 5446 5444 5445 5451 5461 5474 5491 5510
5735 5729 5722 5715 5708 5702 5695 5687 5680 5673 5665 5657 5650 5642 5634 5627 5620 5612 5602 5590 5580 5570 5560 5550 5540 5529 5518 5507 5495 5482 5468 5454 5441 5429 5420 5414 5411 5412 5417 5426 5438 5454 5474
5723 5717 5710 5702 5695 5688 5681 5674 5667 5659 5651 5643 5635 5627 5619 5610 5602 5595 5587 5574 5563 5551 5540 5529 5518 5506 5494 5482 5470 5456 5442 5428 5415 5403 5393 5387 5383 5384 5388 5397 5409 5423 5443
5710 5704 5696 5689 5682 5675 5667 5660 5652 5645 5636 5628 5620 5612 5603 5594 5584 5577 5570 5559 5546 5533 5521 5508 5496 5484 5472 5459 5446 5432 5418 5404 5391 5380 5370 5364 5360 5360 5364 5372 5384 5398 5416
5697 5690 5682 5675 5668 5661 5653 5645 5638 5630 5621 5613 5604 5596 5587 5577 5568 5559 5551 5542 5531 5517 5502 5488 5476 5463 5450 5437 5424 5410 5397 5383 5371 5360 5351 5344 5341 5341 5345 5352 5363 5377 5394
5683 5676 5668 5661 5654 5646 5638 5630 5622 5614 5606 5597 5589 5579 5570 5560 5550 5541 5532 5523 5513 5502 5487 5471 5456 5443 5430 5417 5404 5390 5378 5365 5353 5343 5334 5328 5325 5325 5329 5335 5345 5359 5375
5668 5661 5653 5646 5638 5631 5623 5615 5606 5598 5590 5581 5572 5563 5553 5543 5533 5523 5514 5504 5495 5485 5472 5456 5440 5425 5411 5398 5385 5372 5360 5349 5337 5327 5320 5314 5311 5311 5314 5321 5330 5342 5357
5652 5645 5638 5630 5623 5615 5607 5598 5590 5582 5573 5565 5556 5546 5536 5527 5516 5506 5496 5485 5475 5466 5457 5441 5425 5410 5394 5381 5368 5355 5344 5334 5323 5314 5306 5301 5298 5298 5301 5307 5316 5329 5343
5636 5629 5622 5614 5606 5599 5590 5582 5574 5566 5557 5548 5539 5530 5520 5510 5500 5490 5479 5468 5457 5446 5437 5426 5410 5395 5380 5367 5353 5340 5329 5319 5310 5302 5295 5289 5286 5286 5288 5295 5304 5316 5330
5620 5613 5606 5598 5590 5582 5574 5566 5558 5550 5541 5533 5523 5514 5504 5494 5485 5474 5463 5452 5440 5429 5419 5409 5394 5381 5367 5353 5341 5328 5316 5307 5299 5291 5284 5279 5275 5275 5278 5283 5293 5304 5318
5604 5596 5589 5581 5573 5566 5558 5550 5542 5534 5526 5517 5508 5498 5489 5479 5469 5459 5448 5437 5425 5413 5402 5392 5381 5367 5354 5340 5328 5317 5305 5296 5287 5280 5274 5269 5266 5265 5267 5273 5282 5293 5307
5588 5580 5572 5565 5557 5550 5542 5534 5526 5518 5510 5502 5492 5484 5474 5464 5455 5444 5433 5422 5411 5399 5387 5376 5366 5354 5341 5328 5317 5306 5296 5286 5278 5271 5264 5260 5257 5256 5258 5264 5273 5284 5297
5571 5564 5556 5549 5541 5534 5526 5519 5511 5503 5495 5487 5478 5469 5460 5451 5441 5430 5420 5409 5397 5386 5374 5363 5352 5341 5329 5317 5305 5296 5287 5277 5269 5262 5256 5251 5249 5248 5250 5255 5264 5274 5288
5555 5547 5540 5533 5526 5518 5511 5504 5496 5488 5480 5473 5464 5456 5447 5437 5427 5416 5406 5396 5384 5374 5362 5351 5340 5329 5318 5306 5295 5286 5277 5269 5262 5254 5248 5244 5241 5240 5241 5247 5255 5266 5279
5539 5532 5525 5518 5511 5504 5496 5488 5481 5474 5466 5459 5450 5442 5433 5424 5414 5404 5393 5383 5372 5361 5350 5339 5328 5317 5307 5296 5286 5276 5268 5261 5255 5248 5241 5237 5233 5233 5234 5238 5247 5257 5270
5524 5517 5510 5503 5496 5489 5481 5473 5466 5460 5453 5445 5437 5429 5420 5411 5401 5391 5382 5371 5361 5350 5339 5329 5318 5307 5297 5287 5278 5269 5260 5253 5247 5241 5235 5231 5228 5226 5227 5231 5239 5249 5262
5509 5502 5495 5488 5481 5474 5466 5459 5452 5445 5439 5432 5424 5416 5407 5399 5389 5380 5371 5361 5350 5340 5330 5319 5309 5299 5288 5278 5269 5261 5254 5247 5241 5235 5229 5225 5222 5221 5221 5225 5232 5242 5255
5494 5487 5480 5473 5466 5459 5452 5444 5438 5432 5426 5419 5411 5403 5395 5387 5378 5368 5359 5350 5341 5331 5320 5309 5299 5289 5279 5270 5261 5254 5247 5240 5235 5230 5225 5221 5218 5216 5217 5220 5226 5235 5247
5479 5472 5466 5458 5451 5444 5437 5431 5424 5418 5413 5406 5399 5391 5383 5375 5366 5356 5348 5339 5330 5320 5311 5301 5291 5281 5272 5263 5255 5247 5240 5234 5229 5225 5221 5217 5214 5213 5213 5216 5221 5229 5241